This is the latest recevied weather packets stored in our database for station/object SP1BMW-13. If no packets are shown the sender has not sent any weather packets the latest 10 day(s).
| Time | Temp. | Humidity | Pressure | Rain* | Wind** | Luminosity | Snow |
|---|---|---|---|---|---|---|---|
| 1787506741 | 16.67° C | 75% | 1017.6 hPa | 0 mm | 0 m/s | 6 W/m² | - |
| 1787506681 | 16.67° C | 75% | 1017.6 hPa | 0 mm | 1.34 m/s, 283° | 6 W/m² | - |
| 1787506621 | 16.67° C | 75% | 1017.4 hPa | 0 mm | 0.45 m/s, 235° | 7 W/m² | - |
| 1787506561 | 16.67° C | 76% | 1017.4 hPa | 0 mm | 0 m/s | 8 W/m² | - |
| 1787506501 | 16.67° C | 76% | 1017.5 hPa | 0 mm | 0.45 m/s, 251° | 8 W/m² | - |
| 1787506441 | 16.67° C | 75% | 1017.6 hPa | 0 mm | 0 m/s | 8 W/m² | - |
| 1787506381 | 16.67° C | 76% | 1017.7 hPa | 0 mm | 0.45 m/s, 293° | 8 W/m² | - |
| 1787506321 | 16.67° C | 76% | 1017.3 hPa | 0 mm | 0 m/s | 9 W/m² | - |
| 1787506261 | 16.67° C | 76% | 1017.4 hPa | 0 mm | 0.45 m/s, 284° | 10 W/m² | - |
| 1787506201 | 16.67° C | 76% | 1017.4 hPa | 0 mm | 0.45 m/s, 297° | 11 W/m² | - |
| 1787506141 | 16.67° C | 76% | 1017.6 hPa | 0 mm | 0 m/s | 14 W/m² | - |
| 1787506081 | 16.67° C | 76% | 1017.6 hPa | 0 mm | 0 m/s | 18 W/m² | - |
| 1787506021 | 16.67° C | 75% | 1017.6 hPa | 0 mm | 0 m/s | 23 W/m² | - |
| 1787505961 | 16.67° C | 75% | 1017.6 hPa | 0 mm | 0 m/s | 25 W/m² | - |
| 1787505901 | 16.67° C | 75% | 1017.6 hPa | 0 mm | 0.89 m/s, 277° | 28 W/m² | - |
| 1787505841 | 16.67° C | 75% | 1017.4 hPa | 0 mm | 0 m/s | 32 W/m² | - |
| 1787505781 | 16.67° C | 75% | 1017.6 hPa | 0 mm | 0.45 m/s, 276° | 37 W/m² | - |
| 1787505721 | 16.67° C | 74% | 1017.5 hPa | 0 mm | 0.45 m/s, 285° | 39 W/m² | - |
| 1787505661 | 16.67° C | 75% | 1017.5 hPa | 0 mm | 0.89 m/s, 301° | 42 W/m² | - |
| 1787505600 | 16.67° C | 75% | 1017.5 hPa | 0 mm | 0.45 m/s, 328° | 45 W/m² | - |
| 1787505540 | 16.67° C | 75% | 1017.5 hPa | 0 mm | 0 m/s | 47 W/m² | - |
| 1787505480 | 16.67° C | 75% | 1017.6 hPa | 0 mm | 0.45 m/s, 275° | 49 W/m² | - |
| 1787505420 | 16.67° C | 74% | 1017.6 hPa | 0 mm | 0.45 m/s, 293° | 52 W/m² | - |
| 1787505361 | 16.67° C | 75% | 1017.6 hPa | 0 mm | 0.45 m/s, 191° | 57 W/m² | - |
| 1787505300 | 16.67° C | 75% | 1017.5 hPa | 0 mm | 0 m/s | 64 W/m² | - |
* Rain latest hour (hover to see other rain measurements)
** Current wind speed in m/s (hover to see current wind gust speed)